COSMOS 1275 DEB, 42119

Orbit data source: Space-Track

COSMOS 1275 DEB, 42119 is space debris in LEO originally from a launch on Thu, 04 Jun 1981 UTC launched from the Plesetsk Missile And Space Complex (PKMTR). Debris objects in space refer to the collection of defunct objects orbiting the Earth. Examples of debris include non-operational satellites, rocket bodies, and fragments generated from explosions, collisions, or faulty payload assembly.

Loading next visibility...
Identifier
42119, 1981-053QF
Orbit
LEO
Country
Flag of CISCIS
Related business
Manufacturer
Unknown
Mission
Spacecraft
Bus & Motor
Unknown
Mass
Unknown
Launch date (UTC)
1981-06-04 (45 years ago)
Launch vehicle
Unknown
Launch site
Plesetsk Missile And Space Complex (PKMTR)
Object type
Payload
Rocket body
Debris
Shape & HBR
Unknown shape, 0.1 m
Radar Cross Section
Small (<0.1 m²)

Expand to show TLE details & history
Last TLE update: 1 day ago

TLE from 1 day ago
0 COSMOS 1275 DEB
1 42119U 81053QF  26235.62926082  .00000395  00000-0  31421-3 0  9998
2 42119  83.1774 191.9153 0042538 282.8888  76.7526 13.88379905116615
Epoch: 2026-08-23T15:06Z
TLE epoch observation values (Epoch: 2026-08-23T15:06:08.134Z)
Latitude
-0.00006°
Longitude
-6.54117°
Altitude
930.234 km
Speed
7.39 km/s
True Right ascension
12h 47m 39s
True Declination
0° 00' 00"
Sunlit
Object was in daylight at epoch
Visualization orbit readout
Latitude
Unknown
Longitude
Unknown
Altitude
Unknown
Speed
Unknown
Apparent Right ascension
Unknown
Apparent Declination
Unknown
Sunlit
N/A
Visualization observer readout
Local Sidereal Time
15:28:37
Azimuth
Unknown
Elevation
Unknown
Doppler factor
Unknown
Orbital elements
Apogee altitude
962.529 km
Perigee altitude
900.342 km
Semi-major axis
7,309.572 km
Eccentricity
0.00425
Inclination
83.1774°
RAAN
191.9153°
Arg. of periapsis
282.8888°
True anomaly
77.22765°
Mean anomaly
76.7526°
Eccentric anomaly
76.99007°
Mean motion
3.473 °/min
Orbital period
103.66 mins
BSTAR
0.00031421
Loading maneuver chart data...
Computing Atmospheric mass density...
Loading historical data...
Loading historical data...
Loading historical data...
Loading historical data...
Loading historical data...
Loading historical data...
Loading historical data...

Documentation

Showing up to 5 results
|